Time,TemperatureF,DewpointF,PressureIn,WindDirection,WindDirectionDegrees,WindSpeedMPH,WindSpeedGustMPH,Humidity,HourlyPrecipIn,Conditions,Clouds,dailyrainin,SoftwareType,DateUTC
2013-04-06 00:00:00,47.0,35.4,29.27,West,270,0.0,0.0,64,0.00,RA,OVC,0.00,WeatherDisplay:10.37,2013-04-06 04:00:00,
2013-04-06 00:05:00,46.0,34.5,29.27,WNW,292,1.2,1.2,64,0.00,RA,OVC,0.00,WeatherDisplay:10.37,2013-04-06 04:05:00,
2013-04-06 00:10:00,46.0,34.9,29.27,West,270,0.0,0.0,65,0.00,CLR,OVC,0.00,WeatherDisplay:10.37,2013-04-06 04:10:00,
2013-04-06 00:15:00,46.0,33.7,29.27,NW,315,1.0,1.0,62,0.00,CLR,OVC,0.00,WeatherDisplay:10.37,2013-04-06 04:15:00,
2013-04-06 00:20:00,47.0,34.6,29.27,West,270,0.0,0.0,62,0.00,CLR,OVC,0.00,WeatherDisplay:10.37,2013-04-06 04:20:00,
2013-04-06 00:25:00,47.0,35.0,29.27,West,270,0.0,0.0,63,0.00,CLR,OVC,0.00,WeatherDisplay:10.37,2013-04-06 04:25:00,
2013-04-06 00:30:00,47.0,35.4,29.27,West,270,0.0,0.0,64,0.00,CLR,OVC,0.00,WeatherDisplay:10.37,2013-04-06 04:30:00,
2013-04-06 00:35:00,46.0,34.9,29.27,West,270,0.0,0.0,65,0.00,CLR,OVC,0.00,WeatherDisplay:10.37,2013-04-06 04:35:00,
2013-04-06 00:41:00,46.0,34.9,29.27,West,270,0.0,0.0,65,0.00,CLR,OVC,0.00,WeatherDisplay:10.37,2013-04-06 04:41:00,
2013-04-06 00:46:00,46.0,34.5,29.27,West,270,1.2,0.0,64,0.00,CLR,OVC,0.00,WeatherDisplay:10.37,2013-04-06 04:46:00,
2013-04-06 00:51:00,46.0,34.5,29.27,West,270,0.0,0.1,64,0.00,CLR,OVC,0.00,WeatherDisplay:10.37,2013-04-06 04:51:00,
2013-04-06 00:56:00,46.0,34.5,29.27,West,270,0.0,0.0,64,0.00,CLR,OVC,0.00,WeatherDisplay:10.37,2013-04-06 04:56:00,
2013-04-06 01:01:00,46.0,34.5,29.28,West,270,0.0,0.0,64,0.00,CLR,OVC,0.00,WeatherDisplay:10.37,2013-04-06 05:01:00,
2013-04-06 01:06:00,46.0,33.7,29.28,NW,315,1.2,1.2,62,0.00,CLR,OVC,0.00,WeatherDisplay:10.37,2013-04-06 05:06:00,
2013-04-06 01:11:00,47.0,34.6,29.27,WNW,292,1.2,1.2,62,0.00,CLR,OVC,0.00,WeatherDisplay:10.37,2013-04-06 05:11:00,
2013-04-06 01:16:00,47.0,34.2,29.27,NW,315,3.5,3.5,61,0.00,CLR,OVC,0.00,WeatherDisplay:10.37,2013-04-06 05:16:00,
2013-04-06 01:21:00,47.0,34.2,29.27,West,270,0.0,0.0,61,0.00,CLR,OVC,0.00,WeatherDisplay:10.37,2013-04-06 05:21:00,
2013-04-06 01:26:00,47.0,34.6,29.28,West,270,0.0,0.0,62,0.00,CLR,OVC,0.00,WeatherDisplay:10.37,2013-04-06 05:26:00,
2013-04-06 01:31:00,47.0,34.6,29.28,SSE,157,0.0,0.0,62,0.00,CLR,OVC,0.00,WeatherDisplay:10.37,2013-04-06 05:31:00,
2013-04-06 01:36:00,46.0,33.3,29.29,SSE,157,0.0,0.0,61,0.00,CLR,OVC,0.00,WeatherDisplay:10.37,2013-04-06 05:36:00,
2013-04-06 01:41:00,46.0,33.7,29.29,ENE,67,0.0,0.0,62,0.00,CLR,OVC,0.00,WeatherDisplay:10.37,2013-04-06 05:41:00,
2013-04-06 01:46:00,46.0,33.3,29.29,NE,45,0.0,0.0,61,0.00,CLR,OVC,0.00,WeatherDisplay:10.37,2013-04-06 05:46:00,
2013-04-06 01:51:00,47.0,33.8,29.29,NNW,337,2.0,2.0,60,0.00,CLR,OVC,0.00,WeatherDisplay:10.37,2013-04-06 05:51:00,
2013-04-06 01:56:00,47.0,33.8,29.29,NNW,337,0.0,0.1,60,0.00,CLR,OVC,0.00,WeatherDisplay:10.37,2013-04-06 05:56:00,
2013-04-06 02:01:00,47.0,33.8,29.29,NNW,337,1.2,1.2,60,0.00,CLR,OVC,0.00,WeatherDisplay:10.37,2013-04-06 06:01:00,
2013-04-06 02:07:00,47.0,33.4,29.29,NW,315,1.2,1.2,59,0.00,CLR,OVC,0.00,WeatherDisplay:10.37,2013-04-06 06:07:00,
2013-04-06 02:12:00,47.0,33.4,29.29,NNW,337,0.0,0.0,59,0.00,CLR,OVC,0.00,WeatherDisplay:10.37,2013-04-06 06:12:00,
2013-04-06 02:17:00,47.0,33.8,29.29,NNE,22,0.0,0.0,60,0.00,CLR,OVC,0.00,WeatherDisplay:10.37,2013-04-06 06:17:00,
2013-04-06 02:22:00,47.0,33.8,29.29,North,360,1.2,1.2,60,0.00,CLR,OVC,0.00,WeatherDisplay:10.37,2013-04-06 06:22:00,
2013-04-06 02:27:00,47.0,34.2,29.30,ENE,67,0.0,0.0,61,0.00,CLR,OVC,0.00,WeatherDisplay:10.37,2013-04-06 06:27:00,
2013-04-06 02:32:00,46.0,33.3,29.30,NNE,22,0.0,0.0,61,0.00,CLR,OVC,0.00,WeatherDisplay:10.37,2013-04-06 06:32:00,
2013-04-06 02:37:00,46.0,33.3,29.31,NE,45,0.0,0.0,61,0.00,CLR,OVC,0.00,WeatherDisplay:10.37,2013-04-06 06:37:00,
2013-04-06 02:42:00,46.0,33.7,29.31,ENE,67,0.0,0.0,62,0.00,CLR,OVC,0.00,WeatherDisplay:10.37,2013-04-06 06:42:00,
2013-04-06 02:47:00,46.0,33.3,29.31,NNE,22,0.0,0.0,61,0.00,CLR,OVC,0.00,WeatherDisplay:10.37,2013-04-06 06:47:00,
2013-04-06 02:52:00,46.0,33.3,29.31,NNE,22,0.0,0.0,61,0.00,CLR,OVC,0.00,WeatherDisplay:10.37,2013-04-06 06:52:00,
2013-04-06 02:57:00,46.0,33.3,29.31,NNE,22,0.0,0.0,61,0.00,CLR,OVC,0.00,WeatherDisplay:10.37,2013-04-06 06:57:00,
2013-04-06 03:02:00,46.0,32.9,29.31,North,360,0.0,0.0,60,0.00,CLR,OVC,0.00,WeatherDisplay:10.37,2013-04-06 07:02:00,
2013-04-06 03:07:00,46.0,32.9,29.32,ENE,67,0.0,0.0,60,0.00,CLR,OVC,0.00,WeatherDisplay:10.37,2013-04-06 07:07:00,
2013-04-06 03:12:00,46.0,32.9,29.32,ENE,67,0.0,0.0,60,0.00,CLR,OVC,0.00,WeatherDisplay:10.37,2013-04-06 07:12:00,
2013-04-06 03:17:00,46.0,32.9,29.33,NNE,22,1.2,1.2,60,0.00,CLR,OVC,0.00,WeatherDisplay:10.37,2013-04-06 07:17:00,
2013-04-06 03:22:00,46.0,32.9,29.33,ENE,67,1.2,0.0,60,0.00,CLR,OVC,0.00,WeatherDisplay:10.37,2013-04-06 07:22:00,
2013-04-06 03:27:00,46.0,32.5,29.33,NNE,22,0.0,0.0,59,0.00,CLR,OVC,0.00,WeatherDisplay:10.37,2013-04-06 07:27:00,
2013-04-06 03:32:00,46.0,32.5,29.33,NE,45,0.0,0.0,59,0.00,CLR,OVC,0.00,WeatherDisplay:10.37,2013-04-06 07:32:00,
2013-04-06 03:37:00,46.0,32.5,29.33,ESE,112,0.0,0.1,59,0.00,CLR,OVC,0.00,WeatherDisplay:10.37,2013-04-06 07:37:00,
2013-04-06 03:42:00,46.0,32.0,29.33,ENE,67,0.0,0.0,58,0.00,CLR,OVC,0.00,WeatherDisplay:10.37,2013-04-06 07:42:00,
2013-04-06 03:47:00,46.0,32.0,29.33,ENE,67,0.0,0.0,58,0.00,CLR,OVC,0.00,WeatherDisplay:10.37,2013-04-06 07:47:00,
2013-04-06 03:52:00,46.0,31.6,29.33,NE,45,0.0,0.0,57,0.00,CLR,OVC,0.00,WeatherDisplay:10.37,2013-04-06 07:52:00,
2013-04-06 03:58:00,47.0,32.5,29.33,East,90,3.5,3.5,57,0.00,CLR,OVC,0.00,WeatherDisplay:10.37,2013-04-06 07:58:00,
2013-04-06 04:03:00,47.0,32.1,29.33,SSE,157,0.0,0.0,56,0.00,CLR,OVC,0.00,WeatherDisplay:10.37,2013-04-06 08:03:00,
2013-04-06 04:08:00,47.0,32.5,29.34,NNW,337,2.3,0.0,57,0.00,CLR,OVC,0.00,WeatherDisplay:10.37,2013-04-06 08:08:00,
2013-04-06 04:13:00,47.0,31.7,29.34,NE,45,1.2,1.2,55,0.00,CLR,OVC,0.00,WeatherDisplay:10.37,2013-04-06 08:13:00,
2013-04-06 04:18:00,47.0,31.7,29.34,East,90,0.0,0.0,55,0.00,CLR,OVC,0.00,WeatherDisplay:10.37,2013-04-06 08:18:00,
2013-04-06 04:23:00,47.0,32.1,29.34,ENE,67,0.0,0.0,56,0.00,CLR,OVC,0.00,WeatherDisplay:10.37,2013-04-06 08:23:00,
2013-04-06 04:28:00,47.0,31.7,29.35,ENE,67,1.2,0.0,55,0.00,CLR,OVC,0.00,WeatherDisplay:10.37,2013-04-06 08:28:00,
2013-04-06 04:33:00,46.0,31.2,29.35,ENE,67,0.0,0.0,56,0.00,CLR,OVC,0.00,WeatherDisplay:10.37,2013-04-06 08:33:00,
2013-04-06 04:38:00,46.0,30.7,29.36,ENE,67,0.0,0.2,55,0.00,CLR,OVC,0.00,WeatherDisplay:10.37,2013-04-06 08:38:00,
2013-04-06 04:43:00,46.0,31.2,29.36,ENE,67,0.0,0.0,56,0.00,CLR,OVC,0.00,WeatherDisplay:10.37,2013-04-06 08:43:00,
2013-04-06 04:48:00,46.0,31.2,29.36,ENE,67,1.2,0.0,56,0.00,CLR,OVC,0.00,WeatherDisplay:10.37,2013-04-06 08:48:00,
2013-04-06 04:53:00,46.0,31.6,29.36,ENE,67,0.0,0.0,57,0.00,CLR,OVC,0.00,WeatherDisplay:10.37,2013-04-06 08:53:00,
2013-04-06 04:58:00,46.0,31.2,29.35,ENE,67,1.2,0.0,56,0.00,CLR,OVC,0.00,WeatherDisplay:10.37,2013-04-06 08:58:00,
2013-04-06 05:03:00,46.0,31.6,29.35,ESE,112,0.0,0.0,57,0.00,CLR,OVC,0.00,WeatherDisplay:10.37,2013-04-06 09:03:00,
2013-04-06 05:08:00,46.0,31.2,29.36,ENE,67,2.3,2.3,56,0.00,CLR,OVC,0.00,WeatherDisplay:10.37,2013-04-06 09:08:00,
2013-04-06 05:13:00,45.0,30.7,29.36,NE,45,0.0,0.0,57,0.00,CLR,OVC,0.00,WeatherDisplay:10.37,2013-04-06 09:13:00,
2013-04-06 05:18:00,45.0,30.2,29.37,NE,45,0.0,0.0,56,0.00,CLR,OVC,0.00,WeatherDisplay:10.37,2013-04-06 09:18:00,
2013-04-06 05:23:00,45.0,30.2,29.37,NE,45,0.0,0.0,56,0.00,CLR,OVC,0.00,WeatherDisplay:10.37,2013-04-06 09:23:00,
2013-04-06 05:28:00,45.0,30.7,29.38,NE,45,0.0,0.0,57,0.00,CLR,OVC,0.00,WeatherDisplay:10.37,2013-04-06 09:28:00,
2013-04-06 05:33:00,45.0,30.7,29.38,NE,45,0.0,0.0,57,0.00,CLR,OVC,0.00,WeatherDisplay:10.37,2013-04-06 09:33:00,
2013-04-06 05:38:00,44.0,29.7,29.37,NE,45,0.0,0.0,57,0.00,CLR,OVC,0.00,WeatherDisplay:10.37,2013-04-06 09:38:00,
2013-04-06 05:43:00,44.0,30.2,29.37,NE,45,0.0,0.0,58,0.00,CLR,OVC,0.00,WeatherDisplay:10.37,2013-04-06 09:43:00,
2013-04-06 05:48:00,44.0,30.2,29.39,NE,45,0.0,0.0,58,0.00,CLR,OVC,0.00,WeatherDisplay:10.37,2013-04-06 09:48:00,
2013-04-06 05:53:00,44.0,30.2,29.39,NE,45,0.0,0.0,58,0.00,CLR,OVC,0.00,WeatherDisplay:10.37,2013-04-06 09:53:00,
2013-04-06 05:58:00,44.0,30.6,29.39,NE,45,0.0,0.0,59,0.00,CLR,OVC,0.00,WeatherDisplay:10.37,2013-04-06 09:58:00,
2013-04-06 06:03:00,44.0,31.0,29.39,NE,45,0.0,0.0,60,0.00,CLR,OVC,0.00,WeatherDisplay:10.37,2013-04-06 10:03:00,
2013-04-06 06:08:00,43.0,29.6,29.39,NE,45,0.0,0.0,59,0.00,CLR,OVC,0.00,WeatherDisplay:10.37,2013-04-06 10:08:00,
2013-04-06 06:13:00,43.0,29.6,29.39,NE,45,0.0,0.0,59,0.00,CLR,OVC,0.00,WeatherDisplay:10.37,2013-04-06 10:13:00,
2013-04-06 06:18:00,43.0,29.6,29.40,ENE,67,0.0,0.0,59,0.00,CLR,OVC,0.00,WeatherDisplay:10.37,2013-04-06 10:18:00,
2013-04-06 06:23:00,44.0,31.0,29.40,ENE,67,0.0,0.0,60,0.00,CLR,OVC,0.00,WeatherDisplay:10.37,2013-04-06 10:23:00,
2013-04-06 06:28:00,43.0,29.2,29.41,ENE,67,0.0,0.0,58,0.00,CLR,OVC,0.00,WeatherDisplay:10.37,2013-04-06 10:28:00,
2013-04-06 06:33:00,43.0,29.6,29.41,ENE,67,0.0,0.0,59,0.00,CLR,OVC,0.00,WeatherDisplay:10.37,2013-04-06 10:33:00,
2013-04-06 06:39:00,43.0,29.6,29.42,NE,45,0.0,0.0,59,0.00,CLR,OVC,0.00,WeatherDisplay:10.37,2013-04-06 10:39:00,
2013-04-06 06:44:00,43.0,29.6,29.42,ENE,67,0.0,0.0,59,0.00,CLR,OVC,0.00,WeatherDisplay:10.37,2013-04-06 10:44:00,
2013-04-06 06:49:00,43.0,29.6,29.43,ENE,67,0.0,0.0,59,0.00,CLR,OVC,0.00,WeatherDisplay:10.37,2013-04-06 10:49:00,
2013-04-06 06:54:00,43.0,29.2,29.43,ENE,67,0.0,0.0,58,0.00,CLR,OVC,0.00,WeatherDisplay:10.37,2013-04-06 10:54:00,
2013-04-06 06:59:00,43.0,29.2,29.43,ENE,67,0.0,0.0,58,0.00,CLR,OVC,0.00,WeatherDisplay:10.37,2013-04-06 10:59:00,
2013-04-06 07:04:00,43.0,29.2,29.43,ENE,67,0.0,0.0,58,0.00,CLR,OVC,0.00,WeatherDisplay:10.37,2013-04-06 11:04:00,
2013-04-06 07:10:00,43.0,29.6,29.44,ENE,67,0.0,0.0,59,0.00,CLR,OVC,0.00,WeatherDisplay:10.37,2013-04-06 11:10:00,
2013-04-06 07:15:00,43.0,29.6,29.44,East,90,0.0,0.0,59,0.00,CLR,OVC,0.00,WeatherDisplay:10.37,2013-04-06 11:15:00,
2013-04-06 07:20:00,43.0,29.2,29.44,East,90,0.0,0.0,58,0.00,CLR,OVC,0.00,WeatherDisplay:10.37,2013-04-06 11:20:00,
2013-04-06 07:25:00,43.0,28.8,29.44,East,90,1.2,1.2,57,0.00,CLR,OVC,0.00,WeatherDisplay:10.37,2013-04-06 11:25:00,
2013-04-06 07:30:00,43.0,29.2,29.45,East,90,0.0,0.0,58,0.00,CLR,OVC,0.00,WeatherDisplay:10.37,2013-04-06 11:30:00,
2013-04-06 07:33:00,43.0,28.8,29.45,East,90,1.2,1.2,57,0.00,CLR,OVC,0.00,WeatherDisplay:10.37,2013-04-06 11:33:00,
2013-04-06 07:38:00,43.0,29.2,29.46,East,90,1.0,1.0,58,0.00,CLR,OVC,0.00,WeatherDisplay:10.37,2013-04-06 11:38:00,
2013-04-06 07:43:00,43.0,28.8,29.46,ENE,67,1.2,1.2,57,0.00,CLR,OVC,0.00,WeatherDisplay:10.37,2013-04-06 11:43:00,
2013-04-06 07:48:00,44.0,30.6,29.46,ESE,112,0.0,0.3,59,0.00,CLR,OVC,0.00,WeatherDisplay:10.37,2013-04-06 11:48:00,
2013-04-06 07:53:00,44.0,29.7,29.46,ESE,112,0.0,0.0,57,0.00,CLR,OVC,0.00,WeatherDisplay:10.37,2013-04-06 11:53:00,
2013-04-06 07:58:00,45.0,30.2,29.47,ESE,112,0.0,0.1,56,0.00,CLR,OVC,0.00,WeatherDisplay:10.37,2013-04-06 11:58:00,
2013-04-06 08:03:00,45.0,29.3,29.47,ENE,67,0.0,0.0,54,0.00,CLR,OVC,0.00,WeatherDisplay:10.37,2013-04-06 12:03:00,
2013-04-06 08:08:00,45.0,29.8,29.47,ENE,67,1.2,1.2,55,0.00,CLR,OVC,0.00,WeatherDisplay:10.37,2013-04-06 12:08:00,
2013-04-06 08:13:00,46.0,30.7,29.47,East,90,1.2,1.2,55,0.00,CLR,OVC,0.00,WeatherDisplay:10.37,2013-04-06 12:13:00,
2013-04-06 08:18:00,46.0,30.3,29.49,ESE,112,1.2,0.0,54,0.00,CLR,OVC,0.00,WeatherDisplay:10.37,2013-04-06 12:18:00,
2013-04-06 08:23:00,47.0,30.3,29.49,ENE,67,1.2,1.2,52,0.00,CLR,OVC,0.00,WeatherDisplay:10.37,2013-04-06 12:23:00,
2013-04-06 08:28:00,48.0,31.2,29.49,East,90,0.0,0.0,52,0.00,CLR,OVC,0.00,WeatherDisplay:10.37,2013-04-06 12:28:00,
2013-04-06 08:33:00,48.0,29.7,29.49,East,90,0.0,0.0,49,0.00,CLR,OVC,0.00,WeatherDisplay:10.37,2013-04-06 12:33:00,
2013-04-06 08:38:00,49.0,30.1,29.50,ESE,112,0.0,0.0,48,0.00,CLR,OVC,0.00,WeatherDisplay:10.37,2013-04-06 12:38:00,
2013-04-06 08:44:00,49.0,29.6,29.50,ESE,112,3.5,3.5,47,0.00,CLR,OVC,0.00,WeatherDisplay:10.37,2013-04-06 12:44:00,
2013-04-06 08:49:00,49.0,26.9,29.51,East,90,3.5,3.5,42,0.00,CLR,OVC,0.00,WeatherDisplay:10.37,2013-04-06 12:49:00,
2013-04-06 08:55:00,49.0,27.5,29.51,SE,135,1.2,1.2,43,0.00,CLR,OVC,0.00,WeatherDisplay:10.37,2013-04-06 12:55:00,
2013-04-06 09:00:00,50.0,28.4,29.51,SE,135,3.5,3.5,43,0.00,CLR,OVC,0.00,WeatherDisplay:10.37,2013-04-06 13:00:00,
2013-04-06 09:05:00,49.0,26.9,29.51,ESE,112,8.1,8.1,42,0.00,CLR,OVC,0.00,WeatherDisplay:10.37,2013-04-06 13:05:00,
2013-04-06 09:10:00,50.0,24.7,29.51,ESE,112,5.8,5.8,37,0.00,CLR,OVC,0.00,WeatherDisplay:10.37,2013-04-06 13:10:00,
2013-04-06 09:15:00,49.0,23.2,29.51,ENE,67,4.6,4.6,36,0.00,CLR,OVC,0.00,WeatherDisplay:10.37,2013-04-06 13:15:00,
2013-04-06 09:21:00,50.0,26.6,29.52,East,90,8.1,8.1,40,0.00,CLR,OVC,0.00,WeatherDisplay:10.37,2013-04-06 13:21:00,
2013-04-06 09:26:00,50.0,24.7,29.52,ESE,112,3.5,3.5,37,0.00,CLR,OVC,0.00,WeatherDisplay:10.37,2013-04-06 13:26:00,
2013-04-06 09:31:00,50.0,24.7,29.52,ESE,112,2.3,2.3,37,0.00,CLR,OVC,0.00,WeatherDisplay:10.37,2013-04-06 13:31:00,
2013-04-06 09:36:00,52.0,25.8,29.51,ESE,112,1.2,1.2,36,0.00,CLR,OVC,0.00,WeatherDisplay:10.37,2013-04-06 13:36:00,
2013-04-06 09:41:00,52.0,25.8,29.51,ESE,112,3.5,3.5,36,0.00,CLR,OVC,0.00,WeatherDisplay:10.37,2013-04-06 13:41:00,
2013-04-06 09:47:00,52.0,25.8,29.51,SE,135,3.5,3.5,36,0.00,CLR,OVC,0.00,WeatherDisplay:10.37,2013-04-06 13:47:00,
2013-04-06 09:52:00,52.0,25.8,29.51,ESE,112,1.2,1.2,36,0.00,CLR,OVC,0.00,WeatherDisplay:10.37,2013-04-06 13:52:00,
2013-04-06 09:57:00,52.0,25.8,29.52,SW,225,4.6,4.6,36,0.00,CLR,OVC,0.00,WeatherDisplay:10.37,2013-04-06 13:57:00,
2013-04-06 10:02:00,53.0,25.3,29.52,ESE,112,3.5,0.0,34,0.00,CLR,OVC,0.00,WeatherDisplay:10.37,2013-04-06 14:02:00,
2013-04-06 10:07:00,53.0,26.7,29.53,ENE,67,3.5,3.5,36,0.00,CLR,OVC,0.00,WeatherDisplay:10.37,2013-04-06 14:07:00,
2013-04-06 10:13:00,54.0,24.0,29.53,East,90,2.3,2.3,31,0.00,CLR,OVC,0.00,WeatherDisplay:10.37,2013-04-06 14:13:00,
2013-04-06 10:18:00,53.0,20.7,29.53,ESE,112,3.5,3.5,28,0.00,CLR,OVC,0.00,WeatherDisplay:10.37,2013-04-06 14:18:00,
2013-04-06 10:23:00,54.0,25.5,29.53,East,90,1.2,1.2,33,0.00,CLR,OVC,0.00,WeatherDisplay:10.37,2013-04-06 14:23:00,
2013-04-06 10:28:00,53.0,21.6,29.53,ESE,112,6.0,6.0,29,0.00,CLR,OVC,0.00,WeatherDisplay:10.37,2013-04-06 14:28:00,
2013-04-06 10:33:00,53.0,21.6,29.53,SE,135,3.5,3.5,29,0.00,CLR,OVC,0.00,WeatherDisplay:10.37,2013-04-06 14:33:00,
2013-04-06 10:38:00,53.0,22.4,29.54,ESE,112,3.0,3.0,30,0.00,CLR,OVC,0.00,WeatherDisplay:10.37,2013-04-06 14:38:00,
2013-04-06 10:43:00,54.0,19.8,29.54,ESE,112,6.9,6.9,26,0.00,CLR,OVC,0.00,WeatherDisplay:10.37,2013-04-06 14:43:00,
2013-04-06 10:48:00,54.0,21.6,29.54,ENE,67,3.5,3.5,28,0.00,CLR,OVC,0.00,WeatherDisplay:10.37,2013-04-06 14:48:00,
2013-04-06 10:53:00,55.0,23.3,29.54,ESE,112,1.2,1.2,29,0.00,CLR,OVC,0.00,WeatherDisplay:10.37,2013-04-06 14:53:00,
2013-04-06 10:58:00,56.0,21.6,29.53,ENE,67,1.0,1.0,26,0.00,CLR,OVC,0.00,WeatherDisplay:10.37,2013-04-06 14:58:00,
2013-04-06 11:03:00,57.0,24.2,29.53,SE,135,2.3,2.3,28,0.00,CLR,OVC,0.00,WeatherDisplay:10.37,2013-04-06 15:03:00,
2013-04-06 11:08:00,57.0,24.2,29.53,ESE,112,3.5,3.5,28,0.00,CLR,OVC,0.00,WeatherDisplay:10.37,2013-04-06 15:08:00,
2013-04-06 11:13:00,57.0,20.5,29.53,ENE,67,1.2,1.2,24,0.00,CLR,OVC,0.00,WeatherDisplay:10.37,2013-04-06 15:13:00,
2013-04-06 11:18:00,57.0,20.5,29.53,SE,135,1.2,1.2,24,0.00,CLR,OVC,0.00,WeatherDisplay:10.37,2013-04-06 15:18:00,
2013-04-06 11:23:00,57.0,22.4,29.53,East,90,2.3,2.3,26,0.00,CLR,OVC,0.00,WeatherDisplay:10.37,2013-04-06 15:23:00,
2013-04-06 11:28:00,56.0,21.6,29.53,East,90,3.5,3.5,26,0.00,CLR,OVC,0.00,WeatherDisplay:10.37,2013-04-06 15:28:00,
2013-04-06 11:33:00,56.0,19.7,29.53,East,90,2.0,2.0,24,0.00,CLR,OVC,0.00,WeatherDisplay:10.37,2013-04-06 15:33:00,
2013-04-06 11:39:00,56.0,20.6,29.53,SE,135,3.5,3.5,25,0.00,CLR,OVC,0.00,WeatherDisplay:10.37,2013-04-06 15:39:00,
2013-04-06 11:44:00,56.0,21.6,29.53,ESE,112,4.6,4.6,26,0.00,CLR,OVC,0.00,WeatherDisplay:10.37,2013-04-06 15:44:00,
2013-04-06 11:49:00,56.0,24.2,29.53,NNE,22,3.5,3.5,29,0.00,CLR,OVC,0.00,WeatherDisplay:10.37,2013-04-06 15:49:00,
2013-04-06 11:54:00,57.0,21.5,29.53,NNE,22,3.5,3.5,25,0.00,CLR,OVC,0.00,WeatherDisplay:10.37,2013-04-06 15:54:00,
2013-04-06 11:59:00,58.0,23.3,29.52,NNE,22,2.3,2.3,26,0.00,CLR,OVC,0.00,WeatherDisplay:10.37,2013-04-06 15:59:00,
2013-04-06 12:05:00,59.0,24.1,29.52,East,90,1.2,0.0,26,0.00,CLR,OVC,0.00,WeatherDisplay:10.37,2013-04-06 16:05:00,
2013-04-06 12:10:00,60.0,23.1,29.51,North,360,2.3,2.3,24,0.00,CLR,OVC,0.00,WeatherDisplay:10.37,2013-04-06 16:10:00,
2013-04-06 12:15:00,59.0,24.1,29.51,NE,45,3.5,3.5,26,0.00,CLR,OVC,0.00,WeatherDisplay:10.37,2013-04-06 16:15:00,
2013-04-06 12:20:00,59.0,24.1,29.52,ENE,67,3.5,3.5,26,0.00,CLR,OVC,0.00,WeatherDisplay:10.37,2013-04-06 16:20:00,
2013-04-06 12:25:00,59.0,23.2,29.52,NNE,22,3.5,3.5,25,0.00,CLR,OVC,0.00,WeatherDisplay:10.37,2013-04-06 16:25:00,
2013-04-06 12:30:00,59.0,25.9,29.52,ESE,112,0.0,0.0,28,0.00,CLR,OVC,0.00,WeatherDisplay:10.37,2013-04-06 16:30:00,
2013-04-06 12:35:00,60.0,25.9,29.52,SE,135,3.5,3.5,27,0.00,CLR,OVC,0.00,WeatherDisplay:10.37,2013-04-06 16:35:00,
2013-04-06 12:40:00,59.0,24.1,29.51,ESE,112,3.5,3.5,26,0.00,CLR,OVC,0.00,WeatherDisplay:10.37,2013-04-06 16:40:00,
2013-04-06 12:45:00,58.0,25.0,29.51,NNE,22,3.5,0.0,28,0.00,CLR,OVC,0.00,WeatherDisplay:10.37,2013-04-06 16:45:00,
2013-04-06 12:50:00,58.0,24.2,29.51,ESE,112,5.0,5.0,27,0.00,CLR,OVC,0.00,WeatherDisplay:10.37,2013-04-06 16:50:00,
2013-04-06 12:55:00,58.0,24.2,29.51,North,360,3.5,3.5,27,0.00,CLR,OVC,0.00,WeatherDisplay:10.37,2013-04-06 16:55:00,
2013-04-06 13:00:00,59.0,24.1,29.51,North,360,3.0,3.0,26,0.00,CLR,OVC,0.00,WeatherDisplay:10.37,2013-04-06 17:00:00,
2013-04-06 13:05:00,59.0,24.1,29.51,ENE,67,3.5,3.5,26,0.00,CLR,OVC,0.00,WeatherDisplay:10.37,2013-04-06 17:05:00,
2013-04-06 13:11:00,61.0,27.6,29.51,East,90,2.3,2.3,28,0.00,CLR,OVC,0.00,WeatherDisplay:10.37,2013-04-06 17:11:00,
2013-04-06 13:16:00,61.0,25.8,29.51,ESE,112,4.0,4.0,26,0.00,CLR,OVC,0.00,WeatherDisplay:10.37,2013-04-06 17:16:00,
2013-04-06 13:21:00,60.0,30.0,29.51,East,90,3.5,3.5,32,0.00,CLR,OVC,0.00,WeatherDisplay:10.37,2013-04-06 17:21:00,
2013-04-06 13:27:00,61.0,22.9,29.51,ESE,112,3.5,3.5,23,0.00,CLR,OVC,0.00,WeatherDisplay:10.37,2013-04-06 17:27:00,
2013-04-06 13:32:00,61.0,26.7,29.51,SE,135,3.5,3.5,27,0.00,CLR,OVC,0.00,WeatherDisplay:10.37,2013-04-06 17:32:00,
2013-04-06 13:37:00,61.0,27.6,29.51,North,360,0.0,0.0,28,0.00,CLR,OVC,0.00,WeatherDisplay:10.37,2013-04-06 17:37:00,
2013-04-06 13:42:00,62.0,26.7,29.51,North,360,1.2,0.0,26,0.00,CLR,OVC,0.00,WeatherDisplay:10.37,2013-04-06 17:42:00,
2013-04-06 13:47:00,63.0,27.5,29.50,North,360,1.2,0.0,26,0.00,CLR,OVC,0.00,WeatherDisplay:10.37,2013-04-06 17:47:00,
2013-04-06 13:52:00,62.0,25.7,29.50,SE,135,2.3,2.3,25,0.00,CLR,OVC,0.00,WeatherDisplay:10.37,2013-04-06 17:52:00,
2013-04-06 13:57:00,62.0,28.5,29.50,ENE,67,3.5,3.5,28,0.00,CLR,OVC,0.00,WeatherDisplay:10.37,2013-04-06 17:57:00,
2013-04-06 14:02:00,62.0,25.7,29.50,ENE,67,3.0,3.0,25,0.00,CLR,OVC,0.00,WeatherDisplay:10.37,2013-04-06 18:02:00,
2013-04-06 14:07:00,62.0,27.6,29.50,ESE,112,4.6,4.6,27,0.00,CLR,OVC,0.00,WeatherDisplay:10.37,2013-04-06 18:07:00,
2013-04-06 14:12:00,61.0,25.8,29.50,ESE,112,4.6,4.6,26,0.00,CLR,OVC,0.00,WeatherDisplay:10.37,2013-04-06 18:12:00,
2013-04-06 14:17:00,60.0,25.0,29.51,ESE,112,5.8,5.8,26,0.00,CLR,OVC,0.00,WeatherDisplay:10.37,2013-04-06 18:17:00,
2013-04-06 14:23:00,61.0,26.7,29.51,South,180,3.5,3.5,27,0.00,CLR,OVC,0.00,WeatherDisplay:10.37,2013-04-06 18:23:00,
2013-04-06 14:28:00,61.0,26.7,29.50,NE,45,4.6,4.6,27,0.00,CLR,OVC,0.00,WeatherDisplay:10.37,2013-04-06 18:28:00,
2013-04-06 14:33:00,62.0,26.7,29.50,SSW,202,2.3,2.3,26,0.00,CLR,OVC,0.00,WeatherDisplay:10.37,2013-04-06 18:33:00,
2013-04-06 14:38:00,62.0,26.7,29.49,SW,225,3.5,3.5,26,0.00,CLR,OVC,0.00,WeatherDisplay:10.37,2013-04-06 18:38:00,
2013-04-06 14:43:00,62.0,28.5,29.49,NW,315,2.3,2.3,28,0.00,CLR,OVC,0.00,WeatherDisplay:10.37,2013-04-06 18:43:00,
2013-04-06 14:48:00,63.0,29.4,29.49,SE,135,3.5,3.5,28,0.00,CLR,OVC,0.00,WeatherDisplay:10.37,2013-04-06 18:48:00,
2013-04-06 14:53:00,63.0,30.2,29.49,ESE,112,0.0,0.0,29,0.00,CLR,OVC,0.00,WeatherDisplay:10.37,2013-04-06 18:53:00,
2013-04-06 14:58:00,62.0,27.6,29.49,SE,135,3.5,3.5,27,0.00,CLR,OVC,0.00,WeatherDisplay:10.37,2013-04-06 18:58:00,
2013-04-06 15:03:00,62.0,27.6,29.49,WSW,247,2.3,2.3,27,0.00,CLR,OVC,0.00,WeatherDisplay:10.37,2013-04-06 19:03:00,
2013-04-06 15:08:00,62.0,26.7,29.49,WSW,247,3.5,3.5,26,0.00,CLR,OVC,0.00,WeatherDisplay:10.37,2013-04-06 19:08:00,
2013-04-06 15:13:00,63.0,29.4,29.49,WSW,247,0.0,0.0,28,0.00,CLR,OVC,0.00,WeatherDisplay:10.37,2013-04-06 19:13:00,
2013-04-06 15:18:00,63.0,28.5,29.48,East,90,2.3,2.3,27,0.00,CLR,OVC,0.00,WeatherDisplay:10.37,2013-04-06 19:18:00,
2013-04-06 15:23:00,64.0,29.3,29.48,South,180,1.2,1.2,27,0.00,CLR,OVC,0.00,WeatherDisplay:10.37,2013-04-06 19:23:00,
2013-04-06 15:28:00,63.0,27.5,29.47,ESE,112,3.5,3.5,26,0.00,CLR,OVC,0.00,WeatherDisplay:10.37,2013-04-06 19:28:00,
2013-04-06 15:33:00,63.0,28.5,29.47,SSW,202,3.5,3.5,27,0.00,CLR,OVC,0.00,WeatherDisplay:10.37,2013-04-06 19:33:00,
2013-04-06 15:38:00,64.0,29.3,29.47,ESE,112,2.0,2.0,27,0.00,CLR,OVC,0.00,WeatherDisplay:10.37,2013-04-06 19:38:00,
2013-04-06 15:43:00,65.0,31.9,29.47,SE,135,0.0,0.0,29,0.00,CLR,OVC,0.00,WeatherDisplay:10.37,2013-04-06 19:43:00,
2013-04-06 15:48:00,66.0,31.0,29.47,ENE,67,0.0,0.0,27,0.00,CLR,OVC,0.00,WeatherDisplay:10.37,2013-04-06 19:48:00,
2013-04-06 15:53:00,66.0,30.1,29.47,SE,135,0.0,0.0,26,0.00,CLR,OVC,0.00,WeatherDisplay:10.37,2013-04-06 19:53:00,
2013-04-06 15:59:00,65.0,30.2,29.46,SSE,157,3.5,3.5,27,0.00,CLR,OVC,0.00,WeatherDisplay:10.37,2013-04-06 19:59:00,
2013-04-06 16:04:00,65.0,29.2,29.46,SE,135,0.0,0.0,26,0.00,CLR,OVC,0.00,WeatherDisplay:10.37,2013-04-06 20:04:00,
2013-04-06 16:09:00,66.0,31.9,29.46,SE,135,0.0,0.0,28,0.00,CLR,OVC,0.00,WeatherDisplay:10.37,2013-04-06 20:09:00,
2013-04-06 16:15:00,67.0,29.0,29.46,South,180,2.3,2.3,24,0.00,CLR,OVC,0.00,WeatherDisplay:10.37,2013-04-06 20:15:00,
2013-04-06 16:20:00,66.0,30.1,29.45,South,180,0.0,0.0,26,0.00,CLR,OVC,0.00,WeatherDisplay:10.37,2013-04-06 20:20:00,
2013-04-06 16:25:00,66.0,30.1,29.45,ESE,112,1.2,1.2,26,0.00,CLR,OVC,0.00,WeatherDisplay:10.37,2013-04-06 20:25:00,
2013-04-06 16:30:00,65.0,28.3,29.45,SSE,157,0.0,0.5,25,0.00,CLR,OVC,0.00,WeatherDisplay:10.37,2013-04-06 20:30:00,
2013-04-06 16:35:00,66.0,30.1,29.45,South,180,2.3,2.3,26,0.00,CLR,OVC,0.00,WeatherDisplay:10.37,2013-04-06 20:35:00,
2013-04-06 16:40:00,66.0,30.1,29.45,East,90,0.0,0.0,26,0.00,CLR,OVC,0.00,WeatherDisplay:10.37,2013-04-06 20:40:00,
2013-04-06 16:45:00,65.0,31.1,29.45,SE,135,3.5,3.5,28,0.00,CLR,OVC,0.00,WeatherDisplay:10.37,2013-04-06 20:45:00,
2013-04-06 16:50:00,64.0,29.3,29.45,SE,135,2.0,2.0,27,0.00,CLR,OVC,0.00,WeatherDisplay:10.37,2013-04-06 20:50:00,
2013-04-06 16:55:00,64.0,29.3,29.45,South,180,2.3,0.0,27,0.00,CLR,OVC,0.00,WeatherDisplay:10.37,2013-04-06 20:55:00,
2013-04-06 17:00:00,65.0,28.3,29.45,South,180,3.5,3.5,25,0.00,CLR,OVC,0.00,WeatherDisplay:10.37,2013-04-06 21:00:00,
2013-04-06 17:05:00,65.0,29.2,29.45,NE,45,0.0,0.0,26,0.00,CLR,OVC,0.00,WeatherDisplay:10.37,2013-04-06 21:05:00,
2013-04-06 17:10:00,65.0,31.1,29.45,SW,225,0.0,0.0,28,0.00,CLR,OVC,0.00,WeatherDisplay:10.37,2013-04-06 21:10:00,
2013-04-06 17:15:00,64.0,29.3,29.45,SE,135,3.5,3.5,27,0.00,CLR,OVC,0.00,WeatherDisplay:10.37,2013-04-06 21:15:00,
2013-04-06 17:20:00,64.0,27.4,29.45,South,180,3.5,3.5,25,0.00,CLR,OVC,0.00,WeatherDisplay:10.37,2013-04-06 21:20:00,
2013-04-06 17:25:00,64.0,29.3,29.45,SW,225,1.0,1.0,27,0.00,CLR,OVC,0.00,WeatherDisplay:10.37,2013-04-06 21:25:00,
2013-04-06 17:30:00,64.0,29.3,29.44,SW,225,0.0,0.0,27,0.00,CLR,OVC,0.00,WeatherDisplay:10.37,2013-04-06 21:30:00,
2013-04-06 17:36:00,64.0,31.1,29.44,SW,225,0.0,0.0,29,0.00,CLR,OVC,0.00,WeatherDisplay:10.37,2013-04-06 21:36:00,
2013-04-06 17:41:00,64.0,30.2,29.44,ESE,112,2.3,0.0,28,0.00,CLR,OVC,0.00,WeatherDisplay:10.37,2013-04-06 21:41:00,
2013-04-06 17:46:00,63.0,29.4,29.44,ESE,112,2.3,0.0,28,0.00,CLR,OVC,0.00,WeatherDisplay:10.37,2013-04-06 21:46:00,
2013-04-06 17:51:00,62.0,29.3,29.44,SE,135,1.2,1.2,29,0.00,CLR,OVC,0.00,WeatherDisplay:10.37,2013-04-06 21:51:00,
2013-04-06 17:56:00,61.0,28.5,29.44,NE,45,0.0,0.0,29,0.00,CLR,OVC,0.00,WeatherDisplay:10.37,2013-04-06 21:56:00,
2013-04-06 18:01:00,61.0,30.1,29.45,SSE,157,2.3,2.3,31,0.00,CLR,OVC,0.00,WeatherDisplay:10.37,2013-04-06 22:01:00,
2013-04-06 18:06:00,62.0,30.2,29.45,South,180,3.5,3.5,30,0.00,CLR,OVC,0.00,WeatherDisplay:10.37,2013-04-06 22:06:00,
2013-04-06 18:11:00,61.0,29.3,29.44,SSE,157,0.0,0.0,30,0.00,CLR,OVC,0.00,WeatherDisplay:10.37,2013-04-06 22:11:00,
2013-04-06 18:16:00,61.0,30.1,29.44,SSE,157,0.0,0.0,31,0.00,CLR,OVC,0.00,WeatherDisplay:10.37,2013-04-06 22:16:00,
2013-04-06 18:21:00,61.0,30.1,29.45,ESE,112,0.0,0.0,31,0.00,CLR,OVC,0.00,WeatherDisplay:10.37,2013-04-06 22:21:00,
2013-04-06 18:26:00,60.0,30.8,29.45,East,90,0.0,0.0,33,0.00,CLR,OVC,0.00,WeatherDisplay:10.37,2013-04-06 22:26:00,
2013-04-06 18:31:00,60.0,29.2,29.45,SSE,157,0.0,0.0,31,0.00,CLR,OVC,0.00,WeatherDisplay:10.37,2013-04-06 22:31:00,
2013-04-06 18:37:00,60.0,30.0,29.45,East,90,0.0,0.0,32,0.00,CLR,OVC,0.00,WeatherDisplay:10.37,2013-04-06 22:37:00,
2013-04-06 18:42:00,60.0,30.8,29.45,East,90,0.0,0.0,33,0.00,CLR,OVC,0.00,WeatherDisplay:10.37,2013-04-06 22:42:00,
2013-04-06 18:47:00,60.0,30.8,29.45,East,90,0.0,0.0,33,0.00,CLR,OVC,0.00,WeatherDisplay:10.37,2013-04-06 22:47:00,
2013-04-06 18:52:00,60.0,31.5,29.45,ESE,112,0.0,0.0,34,0.00,CLR,OVC,0.00,WeatherDisplay:10.37,2013-04-06 22:52:00,
2013-04-06 18:57:00,59.0,30.6,29.45,ESE,112,0.0,0.0,34,0.00,CLR,OVC,0.00,WeatherDisplay:10.37,2013-04-06 22:57:00,
2013-04-06 19:02:00,59.0,31.4,29.45,ESE,112,0.0,0.0,35,0.00,CLR,OVC,0.00,WeatherDisplay:10.37,2013-04-06 23:02:00,
2013-04-06 19:07:00,58.0,29.8,29.46,ESE,112,0.0,0.0,34,0.00,CLR,OVC,0.00,WeatherDisplay:10.37,2013-04-06 23:07:00,
2013-04-06 19:12:00,58.0,31.2,29.46,ESE,112,0.0,0.0,36,0.00,CLR,OVC,0.00,WeatherDisplay:10.37,2013-04-06 23:12:00,
2013-04-06 19:17:00,58.0,31.2,29.45,ESE,112,0.0,0.0,36,0.00,CLR,OVC,0.00,WeatherDisplay:10.37,2013-04-06 23:17:00,
2013-04-06 19:22:00,57.0,32.3,29.45,ESE,112,0.0,0.0,39,0.00,CLR,OVC,0.00,WeatherDisplay:10.37,2013-04-06 23:22:00,
2013-04-06 19:27:00,56.0,32.6,29.46,ESE,112,0.0,0.0,41,0.00,CLR,OVC,0.00,WeatherDisplay:10.37,2013-04-06 23:27:00,
2013-04-06 19:32:00,55.0,31.7,29.46,ESE,112,0.0,0.0,41,0.00,CLR,OVC,0.00,WeatherDisplay:10.37,2013-04-06 23:32:00,
2013-04-06 19:37:00,55.0,31.7,29.46,ESE,112,0.0,0.0,41,0.00,CLR,OVC,0.00,WeatherDisplay:10.37,2013-04-06 23:37:00,
2013-04-06 19:42:00,54.0,31.4,29.46,ESE,112,0.0,0.0,42,0.00,CLR,OVC,0.00,WeatherDisplay:10.37,2013-04-06 23:42:00,
2013-04-06 19:48:00,54.0,32.0,29.47,ESE,112,0.0,0.0,43,0.00,CLR,OVC,0.00,WeatherDisplay:10.37,2013-04-06 23:48:00,
2013-04-06 19:53:00,53.0,31.6,29.47,ESE,112,0.0,0.0,44,0.00,CLR,OVC,0.00,WeatherDisplay:10.37,2013-04-06 23:53:00,
2013-04-06 19:58:00,53.0,31.6,29.47,ESE,112,0.0,0.0,44,0.00,CLR,OVC,0.00,WeatherDisplay:10.37,2013-04-06 23:58:00,
2013-04-06 20:03:00,52.0,31.3,29.47,ESE,112,0.0,0.0,45,0.00,CLR,OVC,0.00,WeatherDisplay:10.37,2013-04-07 00:03:00,
2013-04-06 20:08:00,52.0,32.9,29.47,ESE,112,0.0,0.0,48,0.00,CLR,OVC,0.00,WeatherDisplay:10.37,2013-04-07 00:08:00,
2013-04-06 20:13:00,52.0,32.4,29.47,ESE,112,0.0,0.0,47,0.00,CLR,OVC,0.00,WeatherDisplay:10.37,2013-04-07 00:13:00,
2013-04-06 20:18:00,51.0,30.9,29.47,ESE,112,0.0,0.0,46,0.00,CLR,OVC,0.00,WeatherDisplay:10.37,2013-04-07 00:18:00,
2013-04-06 20:23:00,51.0,31.5,29.47,ESE,112,0.0,0.0,47,0.00,CLR,OVC,0.00,WeatherDisplay:10.37,2013-04-07 00:23:00,
2013-04-06 20:28:00,51.0,31.5,29.48,ESE,112,0.0,0.0,47,0.00,CLR,OVC,0.00,WeatherDisplay:10.37,2013-04-07 00:28:00,
2013-04-06 20:33:00,51.0,31.5,29.48,ESE,112,0.0,0.0,47,0.00,CLR,OVC,0.00,WeatherDisplay:10.37,2013-04-07 00:33:00,
2013-04-06 20:38:00,51.0,32.0,29.48,ESE,112,0.0,0.0,48,0.00,CLR,OVC,0.00,WeatherDisplay:10.37,2013-04-07 00:38:00,
2013-04-06 20:43:00,50.0,32.1,29.48,ESE,112,0.0,0.0,50,0.00,CLR,OVC,0.00,WeatherDisplay:10.37,2013-04-07 00:43:00,
2013-04-06 20:48:00,51.0,33.0,29.49,ESE,112,0.0,0.0,50,0.00,CLR,OVC,0.00,WeatherDisplay:10.37,2013-04-07 00:48:00,
2013-04-06 20:53:00,51.0,33.0,29.49,ESE,112,0.0,0.0,50,0.00,CLR,OVC,0.00,WeatherDisplay:10.37,2013-04-07 00:53:00,
2013-04-06 20:58:00,51.0,32.5,29.49,ESE,112,0.0,0.0,49,0.00,CLR,OVC,0.00,WeatherDisplay:10.37,2013-04-07 00:58:00,
2013-04-06 21:03:00,51.0,32.5,29.49,ESE,112,0.0,0.0,49,0.00,CLR,OVC,0.00,WeatherDisplay:10.37,2013-04-07 01:03:00,
2013-04-06 21:08:00,51.0,32.5,29.48,ESE,112,0.0,0.0,49,0.00,CLR,OVC,0.00,WeatherDisplay:10.37,2013-04-07 01:08:00,
2013-04-06 21:13:00,51.0,32.5,29.48,ESE,112,0.0,0.0,49,0.00,CLR,OVC,0.00,WeatherDisplay:10.37,2013-04-07 01:13:00,
2013-04-06 21:18:00,52.0,33.4,29.48,ESE,112,0.0,0.0,49,0.00,CLR,OVC,0.00,WeatherDisplay:10.37,2013-04-07 01:18:00,
2013-04-06 21:23:00,52.0,32.9,29.48,ESE,112,1.2,1.2,48,0.00,CLR,OVC,0.00,WeatherDisplay:10.37,2013-04-07 01:23:00,
2013-04-06 21:29:00,52.0,32.9,29.48,ESE,112,0.0,0.0,48,0.00,CLR,OVC,0.00,WeatherDisplay:10.37,2013-04-07 01:29:00,
2013-04-06 21:34:00,52.0,33.4,29.48,ESE,112,0.0,0.0,49,0.00,CLR,OVC,0.00,WeatherDisplay:10.37,2013-04-07 01:34:00,
2013-04-06 21:39:00,51.0,32.0,29.49,ESE,112,0.0,0.0,48,0.00,CLR,OVC,0.00,WeatherDisplay:10.37,2013-04-07 01:39:00,
2013-04-06 21:44:00,51.0,32.5,29.49,ESE,112,0.0,0.0,49,0.00,CLR,OVC,0.00,WeatherDisplay:10.37,2013-04-07 01:44:00,
2013-04-06 21:49:00,51.0,33.0,29.49,ESE,112,0.0,0.0,50,0.00,CLR,OVC,0.00,WeatherDisplay:10.37,2013-04-07 01:49:00,
2013-04-06 21:54:00,50.0,32.6,29.49,ESE,112,0.0,0.0,51,0.00,CLR,OVC,0.00,WeatherDisplay:10.37,2013-04-07 01:54:00,
2013-04-06 22:00:00,50.0,32.6,29.49,ESE,112,0.0,0.0,51,0.00,CLR,OVC,0.00,WeatherDisplay:10.37,2013-04-07 02:00:00,
2013-04-06 22:05:00,50.0,33.1,29.49,ESE,112,0.0,0.0,52,0.00,CLR,OVC,0.00,WeatherDisplay:10.37,2013-04-07 02:05:00,
2013-04-06 22:10:00,50.0,33.1,29.49,ESE,112,0.0,0.0,52,0.00,CLR,OVC,0.00,WeatherDisplay:10.37,2013-04-07 02:10:00,
2013-04-06 22:15:00,50.0,32.6,29.49,ESE,112,1.2,1.2,51,0.00,CLR,OVC,0.00,WeatherDisplay:10.37,2013-04-07 02:15:00,
2013-04-06 22:20:00,50.0,32.1,29.49,ESE,112,2.3,2.3,50,0.00,CLR,OVC,0.00,WeatherDisplay:10.37,2013-04-07 02:20:00,
2013-04-06 22:25:00,50.0,33.1,29.49,ESE,112,3.5,3.5,52,0.00,CLR,OVC,0.00,WeatherDisplay:10.37,2013-04-07 02:25:00,
2013-04-06 22:30:00,50.0,33.1,29.50,ESE,112,4.0,4.0,52,0.00,CLR,OVC,0.00,WeatherDisplay:10.37,2013-04-07 02:30:00,
2013-04-06 22:35:00,50.0,34.5,29.50,ESE,112,2.3,2.3,55,0.00,CLR,OVC,0.00,WeatherDisplay:10.37,2013-04-07 02:35:00,
2013-04-06 22:40:00,50.0,35.4,29.50,SE,135,1.2,1.2,57,0.00,CLR,OVC,0.00,WeatherDisplay:10.37,2013-04-07 02:40:00,
2013-04-06 22:45:00,49.0,34.9,29.50,SE,135,2.3,2.3,58,0.00,CLR,OVC,0.00,WeatherDisplay:10.37,2013-04-07 02:45:00,
2013-04-06 22:50:00,49.0,35.7,29.51,SE,135,3.5,3.5,60,0.00,CLR,OVC,0.00,WeatherDisplay:10.37,2013-04-07 02:50:00,
2013-04-06 22:55:00,49.0,36.1,29.51,SE,135,1.2,1.2,61,0.00,CLR,OVC,0.00,WeatherDisplay:10.37,2013-04-07 02:55:00,
2013-04-06 23:00:00,49.0,36.5,29.51,SE,135,1.2,0.0,62,0.00,CLR,OVC,0.00,WeatherDisplay:10.37,2013-04-07 03:00:00,
2013-04-06 23:05:00,49.0,36.9,29.51,SE,135,0.0,0.0,63,0.00,CLR,OVC,0.00,WeatherDisplay:10.37,2013-04-07 03:05:00,
2013-04-06 23:10:00,48.0,36.8,29.51,SE,135,0.0,0.0,65,0.00,CLR,OVC,0.00,WeatherDisplay:10.37,2013-04-07 03:10:00,
2013-04-06 23:15:00,48.0,37.2,29.51,SE,135,1.2,1.2,66,0.00,CLR,OVC,0.00,WeatherDisplay:10.37,2013-04-07 03:15:00,
2013-04-06 23:20:00,48.0,37.6,29.51,SSE,157,0.0,0.0,67,0.00,CLR,OVC,0.00,WeatherDisplay:10.37,2013-04-07 03:20:00,
2013-04-06 23:25:00,48.0,37.6,29.51,SE,135,0.0,0.1,67,0.00,CLR,OVC,0.00,WeatherDisplay:10.37,2013-04-07 03:25:00,
2013-04-06 23:30:00,47.0,36.6,29.51,SSE,157,0.0,0.0,67,0.00,CLR,OVC,0.00,WeatherDisplay:10.37,2013-04-07 03:30:00,
2013-04-06 23:35:00,47.0,37.4,29.51,SE,135,1.0,1.0,69,0.00,CLR,OVC,0.00,WeatherDisplay:10.37,2013-04-07 03:35:00,
2013-04-06 23:41:00,47.0,37.4,29.51,SE,135,1.2,1.2,69,0.00,CLR,OVC,0.00,WeatherDisplay:10.37,2013-04-07 03:41:00,
2013-04-06 23:46:00,47.0,37.4,29.51,SSE,157,1.2,1.2,69,0.00,CLR,OVC,0.00,WeatherDisplay:10.37,2013-04-07 03:46:00,
2013-04-06 23:51:00,47.0,37.7,29.51,SE,135,1.2,1.2,70,0.00,CLR,OVC,0.00,WeatherDisplay:10.37,2013-04-07 03:51:00,
2013-04-06 23:56:00,47.0,37.7,29.51,SE,135,1.2,1.2,70,0.00,CLR,OVC,0.00,WeatherDisplay:10.37,2013-04-07 03:56:00,